EW3861 Weather Reports


time (UTC)temp
F
wind
direction
speed
knots
gust
knots
rain 1hr
in
rain 24hr
in
rain mn
in
humidity
%
barometer
mb
20260901071534 65 232 0.0 0.0 0.00 0.00 0.00 92 1016.6
20260901070032 65 232 0.0 0.0 0.00 0.00 0.00 92 1016.6
20260901064533 65 232 0.0 0.0 0.00 0.00 0.00 91 1016.7
20260901063036 65 232 0.0 0.0 0.00 0.00 0.00 91 1016.8
20260901061531 65 232 0.0 0.0 0.00 0.00 0.00 91 1016.8
20260901060029 65 232 0.0 0.0 0.00 0.00 0.00 91 1016.7
20260901054529 65 232 0.0 0.0 0.00 0.00 0.00 90 1016.7
20260901053026 65 232 0.0 0.0 0.00 0.00 0.00 90 1016.9
20260901051537 65 232 0.0 0.0 0.00 0.00 0.00 90 1017.0
20260901050025 65 232 0.0 0.0 0.00 0.00 0.00 89 1017.0
20260901044524 65 232 0.0 0.0 0.00 0.00 0.00 89 1017.1
20260901043031 66 232 0.0 0.0 0.00 0.00 0.00 89 1016.9
20260901041520 66 232 0.0 0.0 0.00 0.00 0.00 89 1017.1
20260901040022 66 232 0.0 0.0 0.00 0.00 0.00 89 1017.2
20260901034517 66 232 0.0 0.0 0.00 0.00 0.00 88 1017.3
20260901033018 66 232 0.0 0.0 0.00 0.00 0.00 88 1017.2
20260901031516 66 232 0.0 0.0 0.00 0.00 0.00 88 1017.2
20260901030013 66 232 0.0 0.0 0.00 0.00 0.00 88 1017.3
20260901024513 66 232 0.0 0.0 0.00 0.00 0.00 87 1017.3
20260901023012 67 232 0.0 0.0 0.00 0.00 0.00 88 1017.2
20260901021512 67 232 0.0 0.0 0.00 0.00 0.00 87 1017.3
20260901020011 67 229 0.0 0.0 0.00 0.00 0.00 87 1017.4
20260901014513 67 229 0.0 0.0 0.00 0.00 0.00 86 1017.5
20260901013014 67 226 0.0 0.0 0.00 0.00 0.00 86 1017.5
20260901011510 67 225 0.0 0.0 0.00 0.00 0.00 85 1017.4
20260901010009 67 223 0.0 0.0 0.00 0.00 0.00 85 1017.4
20260901004509 68 231 0.0 0.0 0.00 0.00 0.00 84 1017.3
20260901003009 68 229 0.0 0.0 0.00 0.00 0.00 83 1017.4
20260901001508 69 229 0.0 0.0 0.00 0.00 0.00 82 1017.3
20260901000007 69 226 0.0 0.0 0.00 0.00 0.00 81 1017.4
20260831234508 69 221 0.0 0.0 0.00 0.00 0.00 81 1017.4
20260831233008 70 229 0.0 0.0 0.00 0.00 0.00 80 1017.3
20260831231506 70 229 0.0 0.0 0.00 0.00 0.00 78 1017.4
20260831230006 71 200 0.0 0.0 0.00 0.00 0.00 78 1017.3
20260831224504 71 200 0.0 0.0 0.00 0.00 0.00 78 1017.3
20260831223005 72 223 0.0 0.0 0.00 0.00 0.00 74 1017.4
20260831221504 73 250 0.0 0.0 0.00 0.00 0.00 75 1017.5
20260831220005 74 250 0.0 0.0 0.00 0.00 0.00 71 1017.4
20260831214503 74 250 0.0 0.0 0.00 0.00 0.00 71 1017.4
20260831213002 75 250 0.0 0.0 0.00 0.00 0.00 70 1017.3
20260831211503 75 250 0.0 0.0 0.00 0.00 0.00 71 1017.3
20260831210001 74 253 0.0 0.0 0.00 0.00 0.00 68 1017.4
20260831204502 75 253 0.0 0.0 0.00 0.00 0.00 66 1017.4
20260831203108 75 253 0.0 0.0 0.00 0.00 0.00 64 1017.3
20260831201600 76 253 0.0 0.0 0.00 0.00 0.00 65 1017.2
20260831200059 77 253 0.0 0.0 0.00 0.00 0.00 62 1017.3
20260831194637 77 253 0.0 0.0 0.00 0.00 0.00 62 1017.4
20260831193100 77 253 0.0 0.0 0.00 0.00 0.00 59 1017.6
20260831191557 76 252 0.0 0.0 0.00 0.00 0.00 59 1017.7
20260831190112 76 253 0.0 0.0 0.00 0.00 0.00 63 1017.8
20260831184559 76 253 0.0 0.0 0.00 0.00 0.00 64 1018.0
20260831183059 75 256 0.0 0.0 0.00 0.00 0.00 60 1018.2
20260831181556 76 223 0.0 0.0 0.00 0.00 0.00 61 1018.2
20260831180049 75 223 0.0 0.0 0.00 0.00 0.00 59 1018.3
20260831174546 74 222 0.0 0.0 0.00 0.00 0.00 64 1018.7
20260831173044 73 221 0.0 0.0 0.00 0.00 0.00 63 1018.6
20260831171543 72 220 0.0 0.0 0.00 0.00 0.00 65 1018.6
20260831170039 71 14 0.0 0.0 0.00 0.00 0.00 65 1018.8
20260831164539 71 15 0.0 0.0 0.00 0.00 0.00 72 1018.9
20260831163038 70 30 0.0 0.0 0.00 0.00 0.00 74 1019.0
20260831161533 70 42 0.0 0.0 0.00 0.00 0.00 77 1019.1
20260831160031 69 42 0.0 0.0 0.00 0.00 0.00 73 1019.1
20260831154529 68 42 0.0 0.0 0.00 0.00 0.00 78 1019.2
20260831153029 67 42 0.0 0.0 0.00 0.00 0.00 81 1019.5
20260831151531 66 39 0.0 0.0 0.00 0.00 0.00 84 1019.6
20260831150025 65 39 0.0 0.0 0.00 0.00 0.00 88 1019.4
20260831144532 65 39 0.0 0.0 0.00 0.00 0.00 92 1019.3
20260831143033 64 13 0.0 0.0 0.00 0.00 0.00 94 1019.4
20260831141542 64 13 0.0 0.0 0.00 0.00 0.00 95 1019.3
20260831140036 64 13 0.0 0.0 0.00 0.00 0.00 96 1019.3
20260831134520 64 13 0.0 0.0 0.00 0.00 0.00 96 1019.2
20260831133030 64 80 0.0 0.0 0.00 0.00 0.00 97 1019.1
20260831131519 64 80 0.0 0.0 0.00 0.00 0.00 97 1019.2
20260831130017 64 323 0.0 0.0 0.00 0.00 0.00 97 1019.1
20260831124520 64 323 0.0 0.0 0.00 0.00 0.00 97 1019.1
20260831123014 63 324 0.0 0.0 0.00 0.00 0.00 97 1018.9
20260831121513 62 324 0.0 0.0 0.00 0.00 0.00 97 1018.7
20260831120013 61 184 0.0 0.0 0.00 0.00 0.00 96 1018.7
20260831114511 61 184 0.0 0.0 0.00 0.00 0.00 96 1018.7
20260831113011 60 184 0.0 0.0 0.00 0.00 0.00 96 1018.5
20260831111508 60 184 0.0 0.0 0.00 0.00 0.00 95 1018.3
20260831110007 60 184 0.0 0.0 0.00 0.00 0.00 95 1018.3
20260831104505 60 184 0.0 0.0 0.00 0.00 0.00 95 1018.1
20260831103005 60 184 0.0 0.0 0.00 0.00 0.00 95 1018.1
20260831101503 60 184 0.0 0.0 0.00 0.00 0.00 94 1017.8
20260831100001 61 184 0.0 0.0 0.00 0.00 0.00 94 1017.7
20260831094559 61 184 0.0 0.0 0.00 0.00 0.00 94 1017.5
20260831093057 61 184 0.0 0.0 0.00 0.00 0.00 94 1017.4
20260831091555 62 184 0.0 0.0 0.00 0.00 0.00 94 1017.2
20260831090106 62 184 0.0 0.0 0.00 0.00 0.00 94 1017.2
20260831084550 62 184 0.0 0.0 0.00 0.00 0.00 94 1017.1
20260831083051 63 184 0.0 0.0 0.00 0.00 0.00 94 1017.0
20260831081549 63 184 0.0 0.0 0.00 0.00 0.00 94 1016.9
20260831080045 64 184 0.0 0.0 0.00 0.00 0.00 94 1016.8
20260831074542 64 184 0.0 0.0 0.00 0.00 0.00 94 1016.6
20260831073040 64 184 0.0 0.0 0.00 0.00 0.00 94 1016.5